Date,TemperatureHighF,TemperatureAvgF,TemperatureLowF,DewpointHighF,DewpointAvgF,DewpointLowF,HumidityHigh,HumidityAvg,HumidityLow,PressureMaxIn,PressureMinIn,WindSpeedMaxMPH,WindSpeedAvgMPH,GustSpeedMaxMPH,PrecipitationSumIn
2013-12-1,62.4,50.4,41.6,37.6,32.7,26.7,70,52,33,30.28,30.14,7,2,11,0.00
2013-12-2,71.6,55.4,44.1,39.8,29.7,26.1,59,39,22,30.14,29.75,12,5,15,0.00
2013-12-3,61.6,51.9,38.2,45.0,34.8,25.2,97,57,33,29.77,29.56,26,14,32,0.00
2013-12-4,43.8,36.7,28.8,32.8,20.8,16.8,82,54,36,29.95,29.64,17,4,21,0.00
2013-12-5,42.3,34.7,27.6,26.7,21.6,18.2,92,60,41,30.03,29.92,4,1,6,0.00
2013-12-6,45.5,40.3,35.8,34.4,32.5,29.6,90,75,55,30.12,29.99,17,13,24,0.00
2013-12-7,43.5,36.1,31.0,39.0,31.3,20.2,98,83,61,30.06,29.87,35,16,46,0.06
2013-12-8,38.8,31.0,25.3,27.6,18.6,12.7,89,61,41,30.26,30.02,7,2,11,0.00
2013-12-9,38.6,30.1,24.2,12.8,5.3,-0.1,59,36,22,30.49,30.26,12,5,14,0.00
2013-12-10,45.7,34.6,24.7,9.5,5.1,-0.6,37,29,21,30.43,30.21,6,2,10,0.00
2013-12-11,51.7,40.4,29.1,18.1,13.1,5.5,42,33,25,30.31,30.21,6,2,10,0.00
2013-12-12,55.6,44.7,35.8,23.5,18.3,15.3,45,35,25,30.28,30.10,6,2,7,0.00
2013-12-13,59.0,47.4,39.1,31.7,21.9,15.6,74,39,21,30.25,30.05,11,5,15,0.00
2013-12-14,55.9,47.4,39.9,23.3,20.2,15.7,45,34,27,30.40,30.24,10,5,13,0.00
2013-12-15,61.6,49.4,38.5,26.3,21.8,16.8,45,34,24,30.39,30.20,8,3,12,0.00
2013-12-16,66.8,52.6,43.5,28.5,24.2,20.2,40,34,23,30.26,30.13,6,1,7,0.00
2013-12-17,65.8,54.5,44.3,29.3,26.2,22.3,42,34,24,30.24,30.00,6,1,7,0.00
2013-12-18,67.4,54.9,44.2,42.6,30.4,25.6,94,41,26,30.00,29.62,28,8,31,0.00
2013-12-19,45.7,40.7,33.8,42.0,38.0,33.0,100,90,76,29.77,29.58,32,13,38,0.24
2013-12-20,49.4,40.8,32.8,36.8,27.6,19.0,90,61,39,29.92,29.75,9,3,12,0.00
2013-12-21,59.3,46.5,35.8,35.7,30.9,17.1,90,57,37,30.01,29.83,10,4,12,0.00
2013-12-22,58.1,47.5,39.3,35.4,31.1,28.6,70,54,36,30.26,30.00,5,2,6,0.00
2013-12-23,58.9,51.6,42.6,32.7,31.3,29.9,61,46,36,30.37,30.26,8,4,10,0.00
2013-12-24,64.0,50.9,39.2,35.2,31.6,29.0,69,49,32,30.30,30.15,7,3,9,0.00
2013-12-25,60.2,49.8,41.9,30.3,24.7,15.4,55,38,26,30.33,30.19,8,4,12,0.00
2013-12-26,62.1,50.6,41.5,21.1,16.0,10.9,33,25,18,30.28,30.16,10,4,14,0.00
2013-12-27,65.5,52.2,41.1,21.8,15.8,8.9,31,24,18,30.25,30.03,7,2,11,0.00
2013-12-28,70.4,55.7,46.0,23.8,17.2,12.5,32,22,13,30.03,29.82,12,4,14,0.00
2013-12-29,57.3,47.9,39.1,20.4,14.5,8.2,36,26,19,30.21,29.95,11,5,16,0.00
2013-12-30,61.2,49.3,38.6,18.4,13.5,7.6,30,24,18,30.26,30.14,4,2,6,0.00
2013-12-31,65.5,53.0,41.5,24.5,18.1,11.6,32,25,20,30.18,30.02,5,1,7,0.00